User: anonymous   Login
Location: Unspecified
(0.0000°N, 0.0000°E)
Time: 23:18:40
(UTC+00:00)
Language:

ONEWEB-0171 - Orbit

View from above orbital plane
View from above orbital plane
View from above satellite
View from above satellite

Ground track
Ground track

The orbit is defined by the following mean orbital elements,

1 48070U          26145.46970737 +.00000000 +00000-0 +31371-3 0 00001
2 48070  87.8940 324.7565 0001707  89.4895 270.6430 13.13469193    09
Epoch (UTC): 25 May 2026 11:16:22
Eccentricity: 0.0001707
inclination: 87.8940°
perigee height: 1208 km
apogee height: 1211 km
right ascension of ascending node: 324.7565°
argument of perigee: 89.4895°
revolutions per day: 13.13469193
mean anomaly at epoch: 270.6430°

The dashed part of the orbit path shows where the satellite is in the earth's shadow,  

DLR